CAPE
0 0 0 0 1 0 1 2 1 1 3 2 3 2 2 2 1 0 0 0 0 0 0 0 0 0 0 0 0 0 0 0 0 0 0 0 0 0 0 0 0 0 0 0 0 0 0 0 0 37 192 306 171 120
0 0 0 0 0 1 3 1 1 0 2 1 3 3 2 1 2 0 0 0 0 0 0 0 0 0 0 0 0 0 0 0 0 0 0 0 0 0 0 0 0 0 0 0 0 0 0 0 0 0 42 149 118 53
0 0 0 0 0 1 0 0 0 0 1 1 1 2 1 1 0 0 0 0 0 0 0 0 0 0 0 0 0 0 0 0 0 0 0 0 0 0 0 0 0 0 0 0 0 0 0 0 0 0 0 0 0 0
0 0 0 0 0 0 0 0 0 0 0 0 0 1 2 1 1 0 0 0 0 0 0 0 0 0 0 0 0 0 0 0 0 0 0 0 0 0 0 0 0 0 0 0 0 0 0 0 0 0 0 0 0 0
0 0 0 0 0 0 0 0 0 0 0 0 0 0 0 0 0 0 0 0 0 0 0 0 0 0 0 0 0 0 0 0 0 0 0 0 0 0 0 0 0 0 0 0 10 0 0 0 0 0 0 0 0 0
0 0 0 0 0 0 0 0 0 0 0 0 0 0 0 0 0 0 3 0 0 0 0 0 0 0 0 0 0 0 0 0 0 0 0 0 0 0 0 0 0 0 0 0 0 0 0 0 0 0 0 0 0 0
0 0 0 0 0 0 0 0 0 0 0 0 0 0 0 0 0 0 0 0 0 0 0 0 0 0 0 0 0 0 0 0 0 0 0 0 0 0 0 0 0 0 0 0 0 0 0 0 0 0 0 0 0 0
0 0 0 0 0 0 0 0 0 0 0 0 0 0 0 0 0 10 1 0 0 0 0 0 0 0 0 5 10 0 7 2 0 0 0 0 0 0 0 0 0 0 0 0 0 4 0 0 0 0 0 0 0 0
0 0 0 0 0 0 0 0 0 0 0 0 0 0 0 0 27 13 0 0 0 0 4 0 0 28 28 25 24 14 11 8 10 0 0 0 0 0 0 0 0 0 0 0 0 0 0 0 0 0 0 0 0 0
0 0 0 0 0 0 0 0 0 0 0 0 0 0 26 17 0 0 1 10 11 14 2 0 0 0 0 85 70 114 67 42 53 39 28 0 0 1 1 1 68 115 77 2 0 0 0 0 0 0 0 0 0 0
0 0 0 0 0 0 0 0 0 0 0 0 0 0 0 0 1 33 36 29 28 28 7 4 32 10 2 83 94 92 53 79 31 58 29 66 73 56 175 151 110 267 130 9 7 3 0 0 2 0 0 0 0 0
0 0 0 0 0 0 0 0 0 0 0 0 1 1 1 4 21 29 7 21 16 15 48 56 90 110 63 147 71 79 34 52 67 41 88 54 265 318 172 216 268 231 103 37 7 3 8 14 3 0 0 0 0 0
0 0 0 0 0 0 0 0 0 0 0 3 1 2 2 1 0 18 19 24 39 27 39 99 118 220 254 159 127 66 28 59 8 30 11 37 125 59 158 268 317 213 35 9 10 29 21 6 0 0 0 0 1 3
0 0 0 0 0 0 0 0 0 0 0 2 1 0 0 1 7 20 22 21 12 43 61 115 176 123 74 135 133 25 108 82 41 17 28 380 341 194 92 166 163 71 36 7 20 46 10 4 0 0 0 0 2 4
0 0 0 0 0 0 0 0 0 0 0 4 2 0 0 2 0 3 9 10 7 21 37 106 43 40 66 48 26 1 4 0 21 46 178 475 285 329 264 183 110 104 116 103 77 37 22 14 0 1 0 0 9 7
0 0 0 0 0 0 0 0 2 2 1 0 0 0 0 0 9 19 5 27 16 25 17 5 33 33 30 80 62 45 20 23 65 116 347 329 250 357 190 63 10 2 8 60 60 59 64 23 10 13 0 11 24 26
0 0 0 0 0 0 0 1 2 1 0 0 0 0 0 0 0 3 8 2 5 24 65 64 51 95 46 47 44 38 31 94 209 251 406 478 389 374 308 119 37 24 104 186 107 121 90 65 55 28 38 62 28 41
0 0 0 0 0 0 3 2 6 1 0 0 0 3 0 0 0 0 1 1 6 52 28 16 25 46 38 27 53 104 132 110 227 277 267 294 194 169 143 196 187 201 187 123 116 112 113 79 33 36 48 62 68 37
3 0 0 0 1 1 0 2 6 1 0 0 0 0 0 0 0 0 0 0 0 28 182 86 25 91 36 94 110 180 115 90 166 261 357 399 281 205 209 247 280 189 156 121 82 49 43 47 53 52 51 54 56 50
0 0 0 0 0 2 0 0 3 5 0 3 0 0 0 0 0 0 0 0 19 80 60 34 30 42 56 100 177 186 279 315 187 99 149 388 402 238 213 198 103 67 73 80 70 26 58 64 70 77 75 72 59 43
0 0 0 3 3 2 2 0 0 0 0 0 0 0 0 0 0 0 0 0 0 0 7 36 52 95 197 126 211 369 322 118 64 154 158 151 317 306 198 230 257 142 52 32 26 30 7 39 52 68 62 55 54 52
1 0 8 6 6 6 4 2 1 1 0 0 0 0 0 3 54 70 27 14 64 83 160 211 146 138 90 199 118 257 306 296 334 143 57 153 230 188 200 187 123 102 60 30 39 34 58 68 66 65 53 58 45 23
0 0 6 6 8 1 0 0 3 4 4 9 1 5 49 123 223 22 141 181 142 240 159 107 187 201 120 33 87 140 266 232 130 145 113 174 179 192 147 158 160 140 81 71 60 46 62 43 42 34 60 51 51 30
0 7 3 6 9 0 1 3 6 6 6 7 12 19 67 161 246 243 51 94 194 157 24 60 71 0 0 2 17 8 78 138 56 80 128 108 65 72 87 74 77 76 77 75 67 65 73 51 19 42 44 40 36 32
3 0 0 0 1 7 0 4 8 7 3 20 18 47 117 145 103 74 63 135 234 156 4 0 0 0 0 0 2 0 73 65 92 96 95 57 50 51 48 44 51 57 60 47 60 60 50 38 28 32 33 25 15 17
0 3 0 4 6 3 4 2 10 22 17 15 47 100 125 81 43 50 95 156 161 124 0 0 0 0 0 0 5 7 32 43 68 102 91 57 35 27 33 40 25 6 1 22 27 19 16 10 7 1 6 5 2 4
0 3 13 9 6 8 5 4 1 15 17 11 12 60 84 41 28 44 94 141 158 190 0 0 0 0 0 0 0 20 42 52 69 82 90 67 47 35 25 29 1 0 0 2 1 0 0 0 0 0 7 22 30 34
8 9 10 8 4 3 1 1 10 17 18 19 30 30 30 21 6 14 13 10 21 125 17 0 0 0 0 0 1 12 32 40 43 44 42 48 60 61 67 48 18 0 0 0 0 0 0 0 0 4 14 24 28 19
9 3 3 3 0 2 3 2 3 16 2 27 35 17 10 54 10 0 5 5 13 21 49 0 0 0 0 0 0 13 29 42 63 75 81 64 57 51 51 58 24 0 0 0 0 0 0 0 0 0 1 2 3 6
8 2 4 0 2 0 0 0 0 0 0 0 0 0 0 0 2 0 0 2 7 14 16 27 25 12 3 0 0 0 24 23 28 36 51 52 40 48 30 33 33 2 0 0 0 0 0 0 0 0 1 8 20 13
1 0 3 1 0 0 0 0 0 0 0 0 0 0 0 0 0 0 0 0 0 0 5 12 28 49 44 23 0 0 12 32 15 26 30 18 13 1 2 12 21 14 0 0 0 0 1 3 1 3 24 27 18 2
0 1 2 1 0 0 0 0 0 0 0 0 0 0 0 0 0 0 0 0 0 0 0 0 8 24 45 31 0 0 0 15 26 32 34 26 18 16 19 20 15 17 16 1 0 0 0 0 0 10 20 22 9 4
2 1 0 0 0 0 0 0 0 0 0 0 0 0 0 0 0 0 0 0 0 0 0 0 0 0 11 46 3 0 0 0 9 0 0 0 0 6 32 28 22 18 7 0 0 1 0 0 1 4 6 3 0 0
CIN
0 0 0 0 0 0 0 0 0 0 0 0 0 0 0 0 0 0 0 0 0 0 0 0 0 0 0 0 0 0 0 0 0 0 0 0 0 0 0 0 0 0 0 0 0 0 0 0 0 -107 -153 -183 -219 -248
0 0 0 0 0 0 0 0 0 0 0 0 0 0 0 0 0 0 0 0 0 0 0 0 0 0 0 0 0 0 0 0 0 0 0 0 0 0 0 0 0 0 0 0 0 0 0 0 0 0 -212 -163 -175 -236
0 0 0 0 0 0 0 0 0 0 0 0 0 0 0 0 0 0 0 0 0 0 0 0 0 0 0 0 0 0 0 0 -21 0 0 0 0 0 0 0 0 0 0 0 0 0 0 0 0 0 0 0 0 0
0 0 0 0 0 0 0 0 0 0 0 0 0 0 0 0 0 0 0 0 0 0 0 0 0 0 0 0 0 0 0 0 0 0 0 0 0 0 0 0 0 0 0 0 0 0 0 0 0 0 0 0 0 0
0 0 0 0 0 0 0 0 0 0 0 0 0 0 0 0 0 0 0 0 0 0 0 0 0 0 0 0 0 0 0 0 0 0 0 0 0 0 0 0 0 0 0 0 -1 0 0 0 0 0 0 0 0 0
0 0 0 0 0 0 0 0 0 0 0 0 0 0 0 0 0 0 0 0 0 0 0 0 0 0 0 0 0 0 0 0 0 0 0 0 0 0 0 0 0 0 0 0 -2 0 0 0 0 0 0 0 0 0
0 0 0 0 0 0 0 0 0 0 0 0 0 0 0 0 0 0 0 0 0 0 0 0 0 0 0 0 0 0 0 0 0 0 0 0 0 0 0 0 0 0 0 0 0 -6 0 0 0 0 0 0 0 0
0 0 0 0 0 0 0 0 0 0 0 0 0 0 0 0 0 -1 0 0 0 0 0 0 0 0 0 -1 -1 0 -2 0 0 0 0 0 0 0 0 0 0 0 0 0 0 -38 0 0 0 0 0 0 0 0
0 0 0 0 0 0 0 0 0 0 0 0 0 0 0 0 0 -1 0 0 0 0 0 0 0 -3 -6 -2 -2 -4 -6 -3 -11 0 0 0 0 0 0 0 0 0 0 0 0 0 0 0 0 0 0 0 0 0
0 0 0 0 0 0 0 0 0 0 0 0 0 0 -1 0 0 0 0 0 0 0 -1 0 0 0 0 -1 -3 -3 -1 -2 -1 -3 -6 0 0 -2 -4 -3 -13 -21 -16 -31 0 0 0 0 0 0 0 0 0 0
0 0 0 0 0 0 0 0 0 0 0 0 0 0 0 0 -1 0 0 0 -1 0 -3 -2 -2 -10 -26 -9 -3 -8 -4 -3 -2 -4 -1 -2 -2 -3 -17 -28 -23 -28 -26 -37 -22 -29 0 0 -15 0 0 0 0 0
0 0 0 0 0 0 0 0 0 0 0 0 0 0 0 -1 0 0 -2 -2 -5 -1 -1 -1 -1 -1 -30 -41 -24 -14 -11 -11 -1 -9 -2 -1 -10 -56 -73 -36 -24 -26 -21 -23 -33 -52 -58 -68 -73 0 0 0 0 0
0 0 0 0 0 0 0 0 0 0 0 0 0 0 0 0 0 0 -2 0 -6 -8 -9 0 0 0 -2 -24 -12 -15 -9 -5 -17 -5 -1 -16 -82 -133 -107 -55 -25 -26 -47 -46 -69 -72 -95 -112 0 0 0 0 0 -1
0 0 0 0 0 0 0 0 0 0 0 0 0 0 0 0 -1 -2 -1 -2 -3 -1 0 -1 0 0 -2 -1 -3 -13 -1 -1 -1 -2 -2 -2 -73 -112 -152 -107 -75 -98 -86 -52 -28 -59 -83 -113 0 0 0 0 0 0
0 0 0 0 0 0 0 0 0 0 0 0 0 0 0 0 -1 -28 -30 -26 -25 -12 -6 -1 -3 -1 -5 -10 -4 -1 -2 0 -6 -8 -4 -33 -69 -49 -52 -53 -60 -41 -12 -15 -33 -40 -46 -59 0 -8 0 0 -3 -1
0 0 0 0 0 0 0 0 0 0 0 0 0 0 0 0 -1 -1 -6 -1 -7 -14 -21 -23 -11 -17 -2 -1 -7 -6 -1 -2 -6 -15 -17 -54 -58 -38 -56 -31 -37 -18 -44 -25 -28 -23 -13 -21 -13 -1 0 -8 -1 0
0 0 0 0 0 0 0 0 0 0 0 0 0 0 0 0 0 -1 -12 -10 -25 -9 -1 -1 -2 0 -5 -1 0 -3 -1 -6 -3 -8 -16 -35 -31 -20 -23 -48 -53 -54 -25 -7 -12 -9 -1 -1 0 -5 -1 -1 -1 -1
0 0 0 0 0 0 0 0 0 0 0 0 0 -1 0 0 0 0 -1 -10 -18 -2 -2 -2 -9 0 0 -1 -1 -4 -7 -19 -7 -13 -17 -33 -44 -44 -39 -16 -16 -9 -5 -7 -9 -3 -2 -4 -5 -2 -1 -2 -3 -2
0 0 0 0 0 0 0 0 0 0 0 -1 0 0 0 0 0 0 0 0 -31 -17 -2 -5 -2 0 -2 -1 -7 -8 -15 -15 -8 -11 -5 -17 -24 -22 -21 -17 -12 -7 -7 -6 -8 -4 -2 -2 -1 -1 -1 -1 -1 -2
0 0 0 0 0 0 0 0 0 0 0 -1 0 0 0 0 0 0 0 0 -7 -3 -1 -1 -1 -1 -5 -2 -3 -3 -3 -1 -1 0 -2 -2 -5 -10 -8 -1 -5 -8 -3 -6 -3 -21 -2 -1 -2 -2 -1 -2 -2 -2
0 0 0 0 0 0 0 0 0 -1 0 0 0 0 0 0 0 0 0 0 0 0 -1 -1 -6 -9 -25 -13 -16 -1 -1 -10 -8 -1 -1 -5 -7 -1 -2 -1 -7 -1 -3 -3 -4 -1 -2 0 -2 0 -1 -1 -3 -7
0 0 0 0 0 0 0 0 0 0 0 0 0 0 0 -1 -2 0 -2 -1 -6 -3 -2 -11 -16 -7 -21 -6 -8 -7 -6 -5 -9 -13 -13 -16 -9 -8 -2 -2 -2 -4 -6 -1 -2 -2 -1 -2 -2 -1 -2 -1 -7 -2
0 0 0 0 0 0 0 0 0 0 0 0 0 0 0 0 0 -41 -4 -4 -5 -24 -28 -27 -19 -24 -5 -28 -20 -15 -14 -13 0 -2 -8 0 -1 0 -1 -1 -1 -1 -1 -1 -2 -2 -1 -14 -7 -9 -2 -2 -1 -4
0 0 0 0 0 0 0 0 0 0 0 0 0 0 0 0 -2 0 -13 -2 -3 -40 -49 -43 -11 0 0 -3 -1 0 -5 -11 -6 -9 -10 -2 0 -2 -4 -2 -13 -2 -2 -1 -2 -1 -2 -2 -13 -3 -3 -2 -1 -2
0 0 0 0 0 0 0 0 0 0 -1 0 0 -1 0 -3 -1 -2 -3 -1 -6 -22 -20 0 0 0 0 0 0 0 -19 -7 -1 0 -2 -8 -1 -1 -3 -1 -3 -1 -3 -2 -1 -1 -2 -4 -2 -1 -1 -1 -3 -2
0 0 0 0 0 0 0 -1 -1 -1 -10 -7 -4 -4 0 0 -1 -1 -1 0 -1 -10 0 0 0 0 0 0 -2 0 -1 -13 -13 -3 -1 -3 -1 -2 -2 -1 -1 -2 -1 -1 -4 -2 -2 -1 -1 -2 -3 -1 -4 -5
0 0 0 0 0 0 0 -1 -1 0 -3 -4 -4 -3 -1 -2 0 -4 -2 -11 -4 -6 0 0 0 0 0 0 0 -11 -10 -15 -16 -8 -13 -14 -6 -6 -4 -1 -1 0 0 0 0 -1 0 0 0 0 -2 -2 -3 -4
0 0 0 -1 0 -1 -1 0 -1 -1 -1 -3 -9 -3 0 -1 -1 -13 -12 -23 -25 -20 -16 0 0 0 0 0 -7 -7 -16 -22 -30 -42 -31 -29 -16 -13 -15 -11 -18 0 0 0 0 0 0 0 0 -4 -2 -2 -4 -2
0 -1 -1 0 -2 -1 0 0 -1 -1 -4 0 -1 0 -10 -8 -18 0 -21 -29 -35 -19 -28 -1 0 0 0 0 -2 -17 -9 -8 -4 -7 -4 -5 -2 -3 -13 -12 -11 0 0 0 0 0 0 0 0 0 -15 -15 -9 -11
0 -1 0 0 0 0 0 0 0 0 0 0 0 0 0 0 -30 -2 0 -20 -13 -9 -11 -4 -3 -3 -1 0 0 0 -5 -11 -4 -3 -3 -3 -3 -4 -4 -4 -4 -2 0 0 0 0 0 0 0 0 -2 -7 -4 -4
-3 0 0 0 0 0 0 0 0 0 0 0 0 0 0 0 0 0 0 0 0 0 -9 -7 -11 -7 -4 -2 0 0 -5 -4 -7 -7 -8 -4 -4 -2 -1 -5 -4 -4 0 0 0 0 -3 -5 -3 -3 -2 -2 -2 -3
-1 -1 0 0 0 0 0 0 0 0 0 0 0 0 0 0 0 0 0 0 0 0 0 0 -3 -7 -4 -2 0 0 0 -11 -2 -11 -24 -13 -14 -5 -5 -9 -11 -9 -8 -2 0 0 0 0 -1 -4 -2 -1 -3 -2
0 -1 -2 0 0 0 0 0 0 0 0 0 0 0 0 0 0 0 0 0 0 0 0 0 0 0 -25 -17 -23 0 0 -2 -15 0 0 0 0 -27 -14 -4 -7 -22 -19 -3 0 -5 0 0 -2 -1 -3 -1 0 -3
Wind_Speed
25 25 25 24 24 25 25 26 27 28 28 27 26 27 26 26 25 23 20 21 20 20 23 18 18 18 18 18 21 19 19 18 20 23 25 24 28 25 28 29 29 32 34 35 34 40 40 21 19 25 23 13 8 6
24 24 25 25 25 26 26 26 27 28 28 28 28 27 27 26 26 25 20 21 23 18 21 20 24 25 21 20 20 19 20 20 20 22 23 23 28 26 29 32 23 30 28 30 27 27 24 22 23 20 15 12 9 9
24 24 25 26 27 27 28 28 28 29 30 30 31 30 29 28 26 25 23 24 21 20 22 17 16 15 15 14 17 19 16 18 18 19 22 23 25 24 28 28 27 25 24 27 26 24 22 17 14 11 8 6 5 5
24 25 26 27 28 28 29 29 30 30 31 31 32 32 30 29 27 24 22 22 22 22 20 17 16 18 15 13 13 16 21 18 19 19 22 24 26 22 28 26 26 25 19 23 24 20 16 13 10 7 6 5 6 8
24 25 26 27 28 28 29 30 31 31 32 33 33 33 31 29 26 23 19 19 21 21 21 24 27 18 15 13 12 15 17 20 21 21 22 25 23 23 23 26 28 21 23 22 27 14 19 9 6 6 7 8 9 11
25 26 27 28 29 30 31 31 32 33 34 35 35 34 31 27 23 20 18 17 19 22 23 23 21 18 17 14 13 14 17 20 21 22 22 21 22 23 25 28 24 19 20 21 22 9 10 4 5 7 8 9 11 13
25 26 27 28 29 30 32 33 34 35 36 37 36 34 29 22 19 20 21 20 21 22 21 24 21 17 17 14 13 15 17 20 20 20 21 23 20 21 27 30 23 19 18 17 11 6 5 6 8 8 10 12 14 17
24 25 26 28 29 31 32 34 35 37 38 38 35 29 22 17 17 17 17 19 19 20 19 22 22 19 17 15 15 15 18 18 17 20 20 21 18 20 26 24 22 19 15 11 8 7 6 6 6 9 12 14 17 20
23 24 25 27 29 31 33 35 36 37 38 36 28 19 17 16 17 18 21 19 17 18 21 20 22 22 19 17 17 15 17 20 16 21 20 18 19 20 22 21 20 15 10 8 7 4 3 6 9 11 14 17 20 21
19 19 19 29 30 29 31 34 35 37 36 26 19 18 18 17 22 19 17 16 15 15 15 18 18 19 20 17 15 16 14 16 19 15 16 18 14 17 17 19 17 10 8 5 4 5 6 8 11 14 17 18 19 20
15 19 24 26 25 29 32 30 32 36 23 23 21 17 19 19 14 14 16 15 14 14 14 15 17 17 14 17 16 16 16 17 18 16 17 17 17 12 16 17 14 8 5 5 7 5 6 9 12 15 17 18 19 20
13 17 22 24 24 27 29 25 29 27 25 18 16 16 16 15 14 12 14 15 14 16 14 13 14 11 14 17 18 17 17 16 16 15 15 16 15 17 17 12 8 4 4 4 4 4 7 10 14 16 17 18 19 19
15 17 19 22 24 23 20 22 25 19 13 15 16 16 16 15 15 14 15 15 16 15 15 11 12 13 9 18 17 17 17 16 18 14 15 17 18 15 14 10 3 5 3 3 4 7 9 12 14 16 17 18 18 19
15 18 19 14 17 18 18 18 18 14 14 15 15 15 14 14 14 14 17 18 20 16 9 11 14 13 8 15 15 15 16 18 16 13 14 17 14 13 11 7 6 4 5 9 9 9 12 13 14 15 17 19 19 19
18 21 21 7 15 17 17 17 6 13 14 13 13 14 13 14 14 13 13 13 4 14 8 11 12 17 18 18 15 15 15 16 17 14 15 14 12 11 10 9 7 8 11 12 11 12 13 14 14 17 17 16 17 19
22 25 15 17 21 25 27 13 15 14 13 13 12 13 13 12 13 14 13 11 10 11 14 14 14 13 14 16 13 12 13 14 14 14 14 12 11 11 10 9 12 15 14 13 13 13 13 14 14 14 14 16 17 18
20 15 17 21 27 29 18 15 15 13 12 13 13 11 10 11 12 13 13 11 12 10 15 14 14 15 15 15 15 15 18 16 15 15 14 12 11 12 14 16 16 15 13 11 10 11 13 12 12 12 14 16 17 19
16 17 20 25 27 23 14 13 13 13 11 9 10 12 11 12 14 13 11 11 13 16 13 14 15 13 15 18 21 19 18 17 18 18 16 13 12 13 13 12 10 9 9 10 12 12 10 10 12 11 15 17 19 19
19 23 25 25 19 19 16 13 12 13 11 10 8 8 9 11 12 12 11 8 8 7 9 11 10 11 12 16 18 21 21 21 21 19 17 15 12 11 10 12 12 13 13 12 10 10 9 10 13 15 17 18 19 22
21 25 20 18 14 16 14 13 13 12 13 14 10 8 10 12 14 12 11 9 8 9 10 10 8 7 17 16 17 17 17 17 17 16 16 15 13 11 11 11 12 12 10 10 10 11 10 12 12 13 15 19 21 23
16 15 16 15 14 13 13 14 11 12 14 11 12 10 16 12 12 11 11 11 10 9 9 7 6 9 12 12 13 14 15 16 16 16 16 14 12 11 10 11 13 12 10 10 11 11 11 12 14 16 17 18 20 23
15 16 16 14 15 12 13 11 12 18 12 11 16 15 17 15 13 14 14 13 12 11 10 10 10 13 15 16 16 15 17 16 17 16 15 14 13 10 8 11 11 10 10 9 11 15 12 12 13 11 18 18 6 18
15 14 14 14 15 14 13 11 11 12 11 11 16 17 16 15 14 14 13 13 12 12 12 12 14 16 17 18 18 18 18 17 18 18 17 16 16 17 18 18 17 18 19 16 19 19 18 17 17 17 16 13 11 12
13 13 14 14 11 15 12 11 10 12 11 13 17 18 18 9 12 13 14 13 14 15 14 15 16 18 18 17 17 18 17 17 17 17 16 15 16 16 17 17 17 18 18 18 18 18 17 16 15 16 15 13 11 10
13 13 13 14 12 12 11 10 8 7 14 19 19 18 16 12 16 15 15 15 14 14 15 16 17 18 18 18 18 18 16 15 14 14 15 15 15 15 16 16 16 17 17 18 18 18 18 16 15 14 13 13 12 11
12 13 12 12 11 10 9 8 6 19 20 20 19 18 16 18 11 13 7 14 6 14 15 16 19 18 18 18 18 17 16 15 14 13 14 15 15 14 13 12 11 13 17 19 18 18 18 17 15 15 15 14 12 9
14 13 9 10 14 15 20 23 24 22 21 20 19 18 17 18 11 14 14 16 15 13 15 16 19 18 18 18 17 15 15 15 14 13 13 15 15 15 13 12 16 16 18 18 17 17 17 16 15 14 13 12 10 8
18 15 7 12 24 25 23 22 22 22 22 21 20 20 19 18 10 14 16 17 17 17 14 15 16 18 18 16 15 14 13 12 12 12 12 13 13 14 14 14 15 17 17 17 17 17 18 18 16 14 12 9 9 8
9 18 22 24 25 24 25 26 24 22 20 21 21 20 19 18 16 18 19 19 19 18 14 14 14 15 15 15 14 13 12 12 13 12 12 12 14 15 15 15 15 16 17 18 18 18 18 16 14 12 11 12 12 10
24 25 23 23 24 26 26 27 25 25 24 23 23 23 23 22 20 18 19 20 20 20 14 13 12 12 13 15 16 14 13 13 12 12 11 12 12 14 14 14 15 15 15 15 14 14 13 12 10 10 8 9 12 10
19 23 23 25 26 25 26 26 27 27 27 27 27 26 25 25 24 22 19 18 17 16 10 11 11 12 12 14 16 17 15 12 12 12 12 12 12 13 14 14 14 14 13 13 13 12 11 10 10 10 9 13 19 9
26 26 24 21 21 21 22 24 24 22 23 20 20 19 22 21 22 25 17 13 12 13 15 14 16 14 12 13 16 17 17 15 11 11 11 11 12 12 11 11 11 11 11 12 11 11 10 10 10 12 17 16 21 17
26 25 24 23 21 19 14 8 16 20 8 6 15 9 11 8 5 23 24 13 3 11 11 11 11 12 15 11 13 14 14 13 10 9 9 11 13 12 11 10 10 10 10 10 10 12 12 11 11 10 9 9 19 20
Wind_Direction
314 316 316 314 314 317 318 318 321 323 323 322 320 323 324 323 323 320 323 326 317 310 300 307 306 302 299 297 289 299 291 290 289 281 281 281 278 285 281 284 283 279 280 278 280 278 275 295 296 284 297 303 291 278
307 310 313 314 313 314 317 314 314 317 319 321 321 320 319 319 321 317 327 328 318 318 307 309 293 285 293 298 298 300 294 297 294 288 287 287 284 285 284 280 288 282 282 286 283 287 298 297 293 299 298 290 286 286
300 303 308 314 316 315 317 316 316 318 322 325 324 321 319 320 321 323 318 318 322 317 311 319 318 318 312 312 304 299 306 303 302 300 295 292 287 290 284 285 286 288 291 285 288 290 297 300 302 306 306 303 305 308
300 304 309 314 315 316 319 318 317 317 319 319 320 321 322 323 324 327 326 322 318 311 314 319 326 318 318 317 311 305 303 307 304 302 295 292 290 296 287 289 288 295 294 287 287 291 297 295 296 300 311 319 317 318
298 303 307 313 311 313 316 316 316 317 318 319 319 321 321 325 329 332 332 330 327 317 312 308 303 316 317 314 313 311 306 302 299 296 293 289 294 295 295 291 287 290 288 286 289 283 291 273 286 298 301 305 311 310
319 319 323 319 318 322 320 318 316 315 316 317 317 319 324 333 337 337 333 339 334 326 314 311 318 315 314 310 308 309 306 304 300 298 294 295 295 296 291 288 293 295 293 291 294 280 290 270 286 302 305 310 313 314
328 330 328 331 334 332 327 321 318 318 317 316 317 321 330 339 343 333 326 333 332 329 318 311 313 322 316 311 308 306 306 304 303 300 295 292 297 293 287 284 297 295 291 290 293 285 271 271 284 306 310 314 315 316
337 337 340 341 340 338 333 329 325 321 316 314 320 333 344 350 345 342 347 341 338 328 324 313 311 315 324 306 300 306 303 306 304 300 302 296 298 297 290 291 287 292 292 284 273 275 279 296 304 310 315 316 314 314
344 344 344 345 340 321 324 323 319 315 312 319 339 358 360 352 345 344 335 338 338 328 321 319 312 311 325 308 307 312 308 302 310 301 295 301 292 290 298 292 287 283 273 264 268 269 282 296 304 313 315 315 312 315
359 360 3 328 325 344 348 329 325 318 325 356 7 1 356 360 342 345 349 347 348 348 339 327 325 313 319 316 308 310 317 308 307 308 309 299 301 302 299 298 291 275 271 247 238 262 286 300 309 313 314 319 320 319
9 1 349 347 357 344 340 348 349 340 14 12 10 15 5 359 18 16 357 355 4 9 17 5 349 325 325 302 299 302 304 303 304 313 309 316 318 309 301 294 292 275 250 259 287 300 309 313 315 317 319 321 322 323
8 0 353 354 356 353 346 4 0 8 10 22 26 30 35 45 52 87 100 59 58 29 50 54 41 37 322 292 287 294 293 311 319 329 323 322 335 319 311 298 291 271 230 267 287 308 319 322 322 323 324 324 324 324
356 355 357 355 353 358 8 9 6 19 37 41 44 48 49 58 78 86 56 46 42 39 54 83 84 88 48 274 289 298 306 315 310 329 330 325 332 346 326 316 306 285 270 284 310 316 319 327 330 330 329 329 329 328
354 350 354 10 9 10 12 18 275 33 46 47 49 53 65 61 62 43 17 10 357 23 102 84 53 62 13 303 313 320 306 297 313 341 348 337 345 355 0 354 306 317 302 292 306 315 316 324 330 334 334 328 326 326
346 339 345 9 13 11 14 266 258 46 49 59 65 59 73 80 96 95 82 59 124 232 221 74 69 270 256 241 306 335 334 322 311 335 345 1 18 18 12 5 344 309 292 292 310 317 324 328 331 327 329 336 340 336
335 327 5 2 353 342 294 343 31 42 51 52 72 74 91 98 98 103 131 165 195 141 86 80 64 28 339 328 2 6 1 352 347 341 346 18 28 24 19 357 326 309 313 315 319 321 329 330 333 335 338 340 341 343
341 0 356 347 327 309 9 23 21 41 55 56 64 91 119 117 130 147 151 183 216 170 61 55 34 5 356 352 345 348 331 337 341 347 357 359 356 341 329 310 302 308 313 324 330 329 328 333 337 341 339 341 340 340
347 349 340 331 335 346 21 34 21 24 43 69 67 64 92 135 166 163 136 63 47 29 51 38 21 22 4 341 329 335 339 339 337 336 338 340 341 338 331 330 339 342 343 340 336 340 345 344 339 342 338 339 338 340
328 319 313 322 356 357 5 24 34 20 34 48 81 107 117 158 171 180 180 159 143 128 63 51 63 48 32 9 353 339 332 328 331 340 337 335 344 344 345 332 336 338 337 342 351 358 4 357 342 336 334 337 338 341
321 302 325 346 12 1 6 10 23 23 20 13 53 82 138 166 198 179 173 146 119 74 64 63 80 58 8 7 3 358 359 1 356 357 358 356 1 357 355 359 353 353 3 9 10 358 359 347 345 344 342 340 339 338
337 345 348 359 4 5 2 2 18 11 3 36 22 199 205 139 152 131 113 89 108 126 149 128 102 53 38 38 46 45 29 22 14 360 1 7 8 8 7 360 342 343 357 3 1 5 6 352 343 335 339 338 331 322
339 337 345 3 354 3 354 4 1 324 3 10 322 314 201 158 108 86 74 107 114 130 115 109 89 79 81 78 73 78 62 64 57 59 59 52 49 23 347 19 56 47 40 28 356 326 355 337 347 323 271 254 89 23
339 349 351 349 344 351 351 3 357 343 354 349 290 284 244 128 100 99 136 118 121 93 100 95 85 101 92 90 93 98 99 104 103 109 118 137 153 172 171 166 181 211 212 157 198 206 218 238 208 198 193 166 143 80
355 353 345 344 349 336 0 4 349 327 328 303 268 259 252 264 88 158 142 121 89 81 94 98 106 103 110 109 115 120 123 123 122 122 133 146 155 161 174 182 184 192 204 206 192 184 189 197 193 169 157 136 121 116
352 348 345 336 346 345 353 357 357 346 285 252 253 257 276 1 180 156 139 90 95 102 105 112 124 125 125 119 113 126 138 150 144 146 156 168 171 165 168 179 186 194 183 165 160 167 170 177 177 166 143 121 125 106
350 338 340 349 353 5 19 17 340 244 237 240 245 259 277 262 355 103 82 329 129 111 118 124 132 129 132 135 126 119 131 139 147 153 158 160 162 171 166 172 184 158 150 162 167 165 160 148 139 123 116 108 110 135
329 336 359 349 296 274 244 221 217 222 228 236 247 257 272 226 202 305 322 298 251 90 110 125 138 142 136 127 129 133 136 138 145 154 154 149 154 153 166 180 91 116 128 139 148 163 164 157 137 119 116 123 131 136
303 315 19 298 192 215 223 224 222 221 224 231 233 217 228 229 354 284 291 292 283 274 113 122 140 149 152 144 139 132 136 145 151 154 155 154 148 151 144 139 123 110 123 132 143 136 132 125 112 126 116 150 207 222
354 265 231 204 216 221 219 215 220 226 242 236 227 233 237 248 260 255 286 276 270 229 150 144 139 150 158 162 165 164 156 149 143 142 154 174 124 120 128 138 124 125 126 110 115 130 123 123 110 172 211 233 241 231
231 210 221 222 219 214 214 202 219 221 239 243 247 241 229 218 213 220 231 235 241 233 173 161 154 151 164 174 175 165 148 148 147 163 167 141 135 84 103 116 130 132 132 135 128 121 126 142 147 162 174 211 244 225
242 221 222 220 221 222 220 225 230 230 227 225 228 228 227 235 236 231 220 211 203 195 160 163 159 166 167 173 176 175 172 147 137 153 149 144 118 92 103 102 106 122 130 138 143 147 143 135 145 171 182 238 281 191
200 201 217 232 239 245 238 223 216 202 209 200 205 205 217 217 226 243 214 188 183 186 187 186 189 179 166 167 170 165 170 162 87 105 135 147 137 122 108 113 120 126 135 147 150 150 146 151 168 197 250 248 289 254
196 208 219 238 250 262 302 356 315 298 354 357 316 328 324 332 231 232 252 342 65 175 174 170 167 166 180 151 156 158 159 158 137 133 140 149 154 139 137 126 100 113 132 149 162 170 166 169 182 186 181 192 257 269